CZ-6A DEB

Satellite information

Favourite Embed

Satellite Type and Status

DEBRISIN ORBIT

Key statistics

Satellite CZ-6A DEB at a glance.

Uptime

1031

Days in orbit

Revolutions

≈ 14.6

Per day

Orbit

SSO

Sun Synchronous Orbit

Inclination

98.7

Latest

Satellite identification and parameters

Extended collection of information and parameters for CZ-6A DEB.

Object identification

Identified? True

Debris? True

Object name: CZ-6A DEB

International designator: 2022-151TH

Object number (NORAD): 54968

Object ID (CCSDS): 54968

Country: PEOPLES REPUBLIC OF CHINA (PRC)

Current information (Y/N): Y

RCS size: SMALL

Orbital parameters

Period: 98.363 minutes

Inclination: 98.6506 deg

SMA: 7058.531 km

Apoapsis: 738.771 km

Periapsis: 622.021 km

RAAN: 296.593 deg

Eccentricy: 0.00827013

Argument of periapsis: 87.6965 deg

Mean anomaly: 273.3702 deg

Mean motion: 14.63966882 rev/day

Mean motion (dot): 0.00017555 rev/day2

B* drag term: 0.0031923252 1/REarth

Two-line elements (TLE)

Creation date: Sept. 7, 2025, 3:09 a.m.

Reference frame: TEME

Reference center: EARTH

Epoch: Sept. 6, 2025, 4:37 p.m. UTC

TLE line 0: 0 CZ-6A DEB

TLE line 1: 1 54968U 22151TH 25249.69299103 .00017555 00000-0 31923-2 0 9997

TLE line 2: 2 54968 98.6506 296.5930 0082701 87.6965 273.3702 14.63966882148708

Live tracking on map

Real-time ground track for satellite CZ-6A DEB.

In-orbit conjunctions

A list of the most updated potential collisions computed for object CZ-6A DEB.

Target Orbit TCA Probability of collision Miss distance Type
SL-8 R/B LEO 2025-03-11 13:54:09 0.000194653 164.0 (m) ROCKET BODY
CZ-6A DEB LEO 2025-02-10 08:14:06 0.0007984162 20.0 (m) DEBRIS
FENGYUN 1C DEB SSO 2024-11-15 02:28:10 0.0001816101 478.0 (m) DEBRIS

Associated space launch

Chinese satellite reported for atmospheric/ocean/environmental/spatial parameter research purposes, details TBD.

CZ-6A DEB was lifted into orbit during the mission ‘Long March 6A | Yunhai 3’, on board a Long March 6A space rocket.

The launch took place on Nov. 11, 2022, 10:52 p.m. from Launch Complex 9A.

For more information about the launch, click the button.

Launch to space Long March 6A | Yunhai 3
Long March 6A | Yunhai 3

Agency: N/A

Status: Launch Successful

Launch date: Nov. 11, 2022, 10:52 p.m. UTC

Rocket: Long March 6A

Launch pad: Launch Complex 9A

Location: Taiyuan Satellite Launch Center, People's Republic of China

...

Latest news about this satellite

There are no fresh news available about this satellite. Check back as we update our databases every day.


Newsletter sign-up

Weekly statistics, charts and insights to help you stay on top of the space industry.